{"data":{"norad_id":36395,"epoch":"2026-09-19T12:06:09.349632Z","epoch_age_seconds":100737,"freshness":"FRESH","line1":"1 36395U 10005A   26262.50427488 -.00000066  00000+0  00000+0 0  9999","line2":"2 36395  34.8457  84.9076 0001506  82.9624 270.4923  1.00275014 61000","mean_motion":1.00275014,"eccentricity":0.0001506,"inclination_deg":34.8457,"raan_deg":84.9076,"arg_perigee_deg":82.9624,"mean_anomaly_deg":270.4923,"bstar":0,"rev_number":6100,"period_min":1436.0506596389,"perigee_km":35779.339907252,"apogee_km":35792.039651878,"semimajor_km":42163.826779565,"source":"CELESTRAK","updated_at":"2026-09-20T09:00:47.143658Z"}}